Salt Lake City, UT

7:59 AM MDT on May 27, 2017 (GMT -0600)
Salt Lake City International

Weather History for KSLC - September, 2015

Change the Weather History Date:

Friday, September 11, 2015

  Actual Average Record
Temperature  
Mean Temperature 74 °F 68 °F  
Max Temperature 90 °F 82 °F 97 °F (1990)
Min Temperature 57 °F 55 °F 38 °F (1947)
Degree Days  
Heating Degree Days 0 2  
Month to date heating degree days 5 11  
Since 1 July heating degree days 5 16  
Cooling Degree Days 9 5  
Month to date cooling degree days 92 69  
Year to date cooling degree days 1297 1105  
Growing Degree Days 24 (Base 50)    
Moisture  
Dew Point 31 °F    
Average Humidity 26    
Maximum Humidity 43    
Minimum Humidity 9    
Precipitation  
Precipitation 0.00 in 0.04 in 0.86 in (1985)
Month to date precipitation T 0.36  
Year to date precipitation 11.15 10.87  
Snow  
Snow 0.00 in 0.00 in - ()
Month to date snowfall 0.0 0.0  
Since 1 July snowfall 0.0 0.0  
Snow Depth 0.00 in    
Sea Level Pressure  
Sea Level Pressure 30.01 in    
Wind  
Wind Speed 7 mph (ESE)    
Max Wind Speed 15 mph    
Max Gust Speed 18 mph    
Visibility 10 miles    
Events      
T = Trace of Precipitation, MM = Missing Value Source: NWS Daily Summary

Daily Weather History Graph

Daily Weather History Graph

Search for Another Location

Airport or City:

Trip Planner

Search our weather history database for the weather conditions in past years. The results will help you decide how hot, cold, wet, or windy it might be!

Date:

Astronomy

Sep. 11, 2015 Rise Set
Actual Time 7:04 AM MDT 7:43 PM MDT
Civil Twilight 6:36 AM MDT 8:11 PM MDT
Nautical Twilight 6:04 AM MDT 8:44 PM MDT
Astronomical Twilight 5:30 AM MDT 9:17 PM MDT
Moon 5:35 AM MDT (9/11) 6:56 PM MDT (9/11)
Length of Visible Light 13h 34m
Length of Day
12h 39m
Waning Crescent, 2% of the Moon is Illuminated
Sep 11
Waning Crescent
Sep 13
New
Sep 21
First Quarter
Sep 27
Full
Oct 4
Last Quarter

Hourly Weather History & Observations

Time (MDT) Temp. Dew Point Humidity Pressure Visibility Wind Dir Wind Speed Gust Speed Precip Events Conditions
12:53 AM 66.0 °F 33.1 °F 29% 29.99 in 10.0 mi SSE 4.6 mph - N/A   Partly Cloudy
1:53 AM 64.0 °F 35.1 °F 34% 29.99 in 10.0 mi SE 6.9 mph - N/A   Partly Cloudy
2:53 AM 62.1 °F 37.9 °F 41% 29.99 in 10.0 mi SE 6.9 mph - N/A   Partly Cloudy
3:53 AM 62.1 °F 36.0 °F 38% 30.00 in 10.0 mi SE 3.5 mph - N/A   Clear
4:53 AM 59.0 °F 36.0 °F 42% 30.01 in 10.0 mi SSE 4.6 mph - N/A   Clear
5:53 AM 57.9 °F 36.0 °F 44% 30.02 in 10.0 mi SE 6.9 mph - N/A   Partly Cloudy
6:53 AM 57.9 °F 36.0 °F 44% 30.04 in 10.0 mi ESE 9.2 mph - N/A   Clear
7:53 AM 62.1 °F 35.1 °F 37% 30.05 in 10.0 mi SE 9.2 mph - N/A   Clear
8:53 AM 69.1 °F 32.0 °F 25% 30.07 in 10.0 mi South 8.1 mph - N/A   Clear
9:53 AM 73.0 °F 35.1 °F 25% 30.07 in 10.0 mi SE 3.5 mph - N/A   Clear
10:53 AM 77.0 °F 33.1 °F 20% 30.07 in 10.0 mi East 3.5 mph - N/A   Clear
11:53 AM 81.0 °F 30.9 °F 16% 30.06 in 10.0 mi Calm Calm - N/A   Clear
12:53 PM 84.9 °F 30.0 °F 14% 30.04 in 10.0 mi North 5.8 mph - N/A   Clear
1:53 PM 88.0 °F 27.0 °F 11% 30.02 in 10.0 mi NNW 8.1 mph - N/A   Clear
2:53 PM 89.1 °F 25.0 °F 10% 30.01 in 10.0 mi NW 6.9 mph - N/A   Clear
3:53 PM 89.1 °F 28.0 °F 11% 29.99 in 10.0 mi North 10.4 mph 17.3 mph N/A   Clear
4:53 PM 89.1 °F 28.9 °F 12% 29.97 in 10.0 mi North 9.2 mph - N/A   Clear
5:53 PM 89.1 °F 25.0 °F 10% 29.97 in 10.0 mi North 9.2 mph - N/A   Clear
6:53 PM 87.1 °F 26.1 °F 11% 29.97 in 10.0 mi North 5.8 mph - N/A   Clear
7:53 PM 82.9 °F 27.0 °F 13% 29.97 in 10.0 mi North 3.5 mph - N/A   Partly Cloudy
8:53 PM 75.9 °F 30.0 °F 19% 29.98 in 10.0 mi SE 5.8 mph - N/A   Partly Cloudy
9:53 PM 72.0 °F 30.0 °F 21% 29.99 in 10.0 mi SSE 8.1 mph - N/A   Clear
10:53 PM 70.0 °F 28.0 °F 21% 29.99 in 10.0 mi SSE 5.8 mph - N/A   Clear
11:53 PM 66.9 °F 28.9 °F 24% 29.99 in 10.0 mi SE 5.8 mph - N/A   Clear